Погода в Коноплине

Россия / Рязанская область     53°36′19″N   40°36′49″E
темп.,
°C
ветер,
м/с
пор.,
м/с
влажн.,
%
обл.,
%
осадки,
мм/ч
давл.,
гПа
погр.,
м
29 мая, вс
вс2900:00+8юз411905 0.0 1010223
03:00+7юз49950 0.0 1011199
06:00+9юз398736 0.0 1012246
09:00+13юз697092 0.0 1013878
12:00+15зюз7954100 0.1 10141750
15:00+15зюз685625 0.1 10151957
18:00+14юз47677 0.0 1015725
21:00+10юз35815 0.1 101768
30 мая, пн
пн3000:00+9юз3689100 0.0 1018106
03:00+7з22920 0.0 101932
06:00+9з23860 0.0 1021110
09:00+14з22655 0.0 1021677
12:00+18юз12541 0.0 10211416
15:00+19ююв225015 0.0 10211635
18:00+18юв2363100 0.0 1020344
21:00+16юв226497 0.0 102120
31 мая, вт
вт3100:00+14юв467166 0.0 1021133
03:00+13юв3875100 0.0 1020193
06:00+12вюв498687 0.5 1021239
09:00+18юв697278 0.5 1020576
12:00+22ююв686777 0.0 10191283
15:00+20юв598083 0.9 1018620
18:00+18ююв51091100 5.1 1018367
21:00+17юв41097100 15.1 1017247
1 июня, ср
ср100:00+16юв51295100 4.6 1017370
03:00+16юв71198100 16.3 1017406
06:00+16ююв4898100 1.4 1018399
09:00+18юз229185 1.6 1018386
12:00+21зсз017665 0.3 1019790
15:00+22сз3274100 0.4 1019752
18:00+21с238186 0.3 1020441
21:00+18св359199 0.5 1019119
2 июня, чт
чт200:00+16всв359648 0.0 101997
03:00+15всв349711 4.7 101982
06:00+17в3496100 1.1 1018141
09:00+21юв3484100 1.1 1017370
12:00+25ю346920 0.1 1017878
15:00+25ю456896 1.4 10161175
18:00+17зюз2692100 7.4 1016117
21:00+18зюз3991100 11.6 1017242